Francesca Barone

ATLETICA LONATO


Informazioni sul tesseramento aggiornate al 2020


Condividi con
Seguici su:


200 metri

Anno Data Tipo Cr. Cat. Piazz. Prestaz. Vento Città  
201512/07PESF555 se- 1 32.43-1.2Cinisello Balsamo
201413/07PESF552 su- 1 32.78-1.2Busto Arsizio
201820/05PESF602 se- 2 34.04+2.9Cinisello Balsamo
 

400 metri

Anno Data Tipo Cr. Cat. Piazz. Prestaz. Vento Città  
201412/07PESF552 su- 1 1:10.80Busto Arsizio
201511/07PESF553 se- 1 1:11.56Cinisello Balsamo
201713/05PESF551 se- 2 1:13.72Mantova
 

800 metri

Anno Data Tipo Cr. Cat. Piazz. Prestaz. Vento Città  
201330/06PEMF551 su- 1 2:34.84Orvieto
201406/07PESF551 su- 1 2:39.43Modena
201310/03IEMF551 su- 1 2:40.52Ancona
201211/07PEMF502 se- 4 2:40.58Rovellasca
201505/07PESF551 su- 1 2:41.81Cassino
201219/09PEMF505 se- 2 2:42.58Milano
201512/07PESF552 su- 1 2:42.87Cinisello Balsamo
201409/03IESF552 su- 1 2:43.13Ancona
201101/09PEMF506 se- 4 2:43.33Cernusco Sul Naviglio
201121/09PEMF508 se- 3 2:43.55Milano
201101/10PEMF504 su- 1 2:44.08Cosenza
201413/07PESF555 su- 1 2:45.04Busto Arsizio
201209/09PEMF509 su- 1 2:45.17Milano
201631/03IESF552 fi- 1 2:45.89Ancona
201103/07PEMF503 se- 2 2:46.66Busto Arsizio
201709/07PESF552 su- 1 2:47.19Orvieto
201203/06PEMF506 su- 1 2:47.33Mariano Comense
201801/07PESF601 su- 1 2:48.34Arezzo
201811/09PESF605 fi- 1 2:48.73Malaga
201628/02IESF553 se- 2 2:49.54Ancona
201810/09PESF601 sf- 3 2:50.15Malaga
201526/04PESF559 se- 2 2:51.82 Busto Arsizio
201825/02IESF601 su- 1 2:52.67Ancona
201927/03IESF604 sf- 2 2:54.14Torun
201817/06PESF608 su- 1 2:54.78Mantova
201629/03IESF551 ba- 1 2:55.84Ancona
201714/05PESF555 su- 1 2:56.98Mantova
201924/02IESF602 su- 1 2:57.62Ancona
201719/07PESF558 se- 2 2:58.17Cernusco Sul Naviglio
201820/05PESF607 su- 1 2:58.52Cinisello Balsamo
201927/08PESF6011 su- 1 2:58.64Rovereto
201928/03IESF609 fi- 1 2:59.11Torun
 

1000 metri

Anno Data Tipo Cr. Cat. Piazz. Prestaz. Vento Città  
201823/08PESF6015 su- 1 3:47.22Rovereto
 

1500 metri

Anno Data Tipo Cr. Cat. Piazz. Prestaz. Vento Città  
201102/07PEMF502 se- 2 5:13.84Busto Arsizio
201224/06PEMF503 su- 1 5:16.07Comacchio
201329/06PEMF551 su- 1 5:18.07Orvieto
200504/06PESF4 su- 1 5:18.16Somma Lombardo
201309/03IEMF551 su- 1 5:23.02Ancona
201202/06PEMF507 su- 1 5:23.51Mariano Comense
201405/07PESF551 su- 1 5:24.14Modena
201212/09PEMF501 se- 1 5:24.22Voghera
201102/10PEMF503 su- 1 5:24.31Cosenza
201327/04PEMF556 su- 1 5:29.71Busto Arsizio
201408/03IESF551 su- 1 5:29.83Ancona
201504/07PESF551 su- 1 5:34.27Cassino
201816/09PESF603 fi- 1 5:37.37Malaga
201602/04IESF554 su- 1 5:37.99Ancona
201627/02IESF553 su- 1 5:39.28Ancona
201508/09PESF5510 su- 1 5:40.03Rovereto
201816/06PESF607 su- 1 5:40.50Mantova
201829/09PESF608 se- 2 5:41.04Modena
201716/09PESF556 se- 2 5:44.77Montecassiano
201708/07PESF552 su- 1 5:45.64Orvieto
201815/09PESF603 ba- 2 5:46.76Malaga
201830/06PESF601 su- 1 5:46.86Arezzo
201819/05PESF607 su- 1 5:48.04Cinisello Balsamo
201702/09PESF558 su- 1 5:52.42Gavardo
201824/02IESF601 su- 1 5:54.63Ancona
201907/09PESF603 su- 1 5:56.37Jesolo-caorle-eraclea
201909/02IESF6012 se- 1 5:57.95Padova
201606/09PESF5510 su- 1 5:58.19Rovereto
201923/02IESF601 su- 1 6:02.80Ancona
201906/07PESF604 su- 1 6:06.77Campi Bisenzio
 

1 Miglio

Anno Data Tipo Cr. Cat. Piazz. Prestaz. Vento Città  
201412/04PESF555 se- 1 5:54.42Milano
201506/05PESF551 se- 1 5:54.60Pioltello
201228/04PEMF501 se- 1 5:58.14Milano
201320/04PEMF556 se- 1 6:03.19Milano Arena
201708/04PESF551 se- 1 6:10.12 Milano
201730/09PESF553 se- 1 6:10.98Carate Brianza
201814/04PESF601 se- 1 6:11.48Milano
201616/04PESF551 se- 1 6:11.56Milano
201813/10PESF603 se- 1 6:11.76Carate Brianza
201812/05PESF601 su- 1 6:16.74Milano
201619/03PESF551 se- 1 6:19.74Pioltello
201905/10PESF601 se- 1 6:46.64Chiavenna
 

3000 metri

Anno Data Tipo Cr. Cat. Piazz. Prestaz. Vento Città  
201427/03IESF551 su- 1 11:16.85 Budapest
201407/03IESF551 su- 1 11:30.74Ancona
201308/03IEMF551 su- 1 11:39.42Ancona
201717/09PESF558 se- 2 12:05.42Montecassiano
201626/02IESF552 su- 1 12:06.33Ancona
201718/06PESF554 su- 1 12:08.20Mantova
201823/02IESF601 su- 1 12:12.60Ancona
201830/09PESF6014 se- 2 12:14.14Modena
201926/01IESF606 su- 1 12:35.68Padova
201924/03IESF605 su- 1 12:36.64Torun
201922/02IESF601 su- 1 12:36.88Ancona
201920/07PESF609 su- 1 12:43.42San Biagio Di Callalta
 

5000 metri

Anno Data Tipo Cr. Cat. Piazz. Prestaz. Vento Città  
200515/05PESF2 se- 2 19:10.24Lodi
201328/06PEMF551 su- 1 19:26.13Orvieto
200512/06PESF12 su- 1 19:33.05Pergine
201223/06PEMF503 su- 1 20:12.08Comacchio
201404/07PESF552 su- 1 20:19.46Modena
200621/05PESF11 se- 2 20:32.08Vigevano
201503/07PESF552 su- 1 20:48.14Cassino
201812/09PESF601 fi- 1 21:23.55Malaga
201829/06PESF601 su- 1 21:40.28Arezzo
201707/07PESF552 su- 1 21:44.78Orvieto
201905/07PESF603 su- 1 23:39.92Campi Bisenzio
 

10000 metri

Anno Data Tipo Cr. Cat. Piazz. Prestaz. Vento Città  
201212/05PEMF501 su- 1 43:37.46Bologna
 

Corsa strada Km 10

Anno Data Tipo Cr. Cat. Piazz. Prestaz. Vento Città  
201319/05SEMF555 su- 1 40:25Milano Arena
201314/04SEMF55138 su- 1 40:49Sesto Calende
201402/02SESF55220 su- 1 41:43Magenta
201501/02SESF55316 su- 1 41:48Magenta
201311/05SEMF55196 su- 1 41:50Saronno
201425/05SESF558 su- 1 42:09Milano
201630/10SMSF55121 su- 1 42:56Cardano Al Campo
201515/11SESF55117 su- 1 43:17Cardano Al Campo
201516/05SESF55195 su- 1 43:25Saronno
 

MARATONINA A

Anno Data Tipo Cr. Cat. Piazz. Prestaz. Vento Città  
201218/03SMMF506 su- 1 1h30:09Vigevano
201211/11SEMF50482 su- 1 1h31:24Busto Arsizio
201310/11SEMF55520 su- 1 1h33:29Busto Arsizio
201613/11SESF55550 su- 1 1h35:36Busto Arsizio
201229/01SMMF5018 su- 1 1h35:38Novara
201409/11SESF55590 su- 1 1h35:45Busto Arsizio
201910/11SESF60593 su- 1 1h39:32Busto Arsizio
 

Attenzione: le schede-atleti sono composte automaticamente sulla base dei dati inseriti all'interno degli archivi nazionali aggiornati dal 2005 al 21-09-2020. Se un risultato non compare nelle graduatorie, quindi, è segno che lo stesso, con ogni probabilità, non è stato ancora inserito. Il processo di inserimento è di competenza dei Comitati Regionali sul cui territorio ha avuto luogo la manifestazione: eventuali segnalazioni per errori od omissioni, vanno dunque indirizzate agli stessi (potete utilizzare l'elenco con relativi contatti). Considerato però che solo le principali manifestazioni nazionali sono oggetto di inserimenti "in diretta" (sul posto di gara), mentre le altre, incluse le internazionali in programma all'estero, vengono inserite in tempi successivi, è opportuno attendere un ragionevole lasso di tempo prima di procedere ad una segnalazione.

Stickers


Non ventosi

GaraTipoPrestazioneVentoAnnoCittà
200 metriPista 32.43-1.22015Cinisello Balsamo
400 metriPista 1:10.802014Busto Arsizio
800 metriPista 2:34.842013Orvieto
800 metriIndoor 2:40.522013Ancona
1000 metriPista 3:47.222018Rovereto
1500 metriPista 5:13.842011Busto Arsizio
1500 metriIndoor 5:23.022013Ancona
1 MiglioPista 5:54.422014Milano
3000 metriIndoor 11:16.852014 Budapest
3000 metriPista 12:05.422017Montecassiano
5000 metriPista 19:10.242005Lodi
10000 metriPista 43:37.462012Bologna
Corsa strada Km 10Strada 40:252013Milano Arena
MARATONINA AStrada 1h30:092012Vigevano

Ventosi

GaraTipoPrestazioneVentoAnnoCittà 
200 metriPista 34.04+2.92018Cinisello Balsamo

AnnoTipo mov.CategoriaSocietà
2020RinnovoSeniores 60 FemminileATLETICA LONATO
2019RinnovoSeniores 60 FemminileATLETICA LONATO
2018TrasferimentoSeniores 60 FemminileATLETICA LONATO
2017TrasferimentoSeniores 55 FemminileATL. VIRTUS CASTENEDOLO
2016TrasferimentoSeniores 55 FemminileCARDATLETICA
2015RinnovoSeniores 55 FemminileAMATORI ATL. CASORATE S.
2014RinnovoSeniores 55 FemminileAMATORI ATL. CASORATE S.
2013RinnovoMaster 55 FemminileAMATORI ATL. CASORATE S.
2012RinnovoMaster 50 FemminileAMATORI ATL. CASORATE S.
2011NuovoMaster 50 FemminileAMATORI ATL. CASORATE S.
2009RinnovoMaster 50 FemminileN. ATL. VARESE
2008RinnovoMaster 50 FemminileN. ATL. VARESE
2007RinnovoMaster 45 FemminileN. ATL. VARESE
2006RinnovoSeniores FemminileN. ATL. VARESE
2005RinnovoSeniores FemminileN. ATL. VARESE
2004RinnovoSeniores FemminileN. ATL. VARESE
2003RinnovoSeniores FemminileN. ATL. VARESE
2002RinnovoSeniores FemminileN. ATL. VARESE
2001RinnovoSeniores FemminileN. ATL. VARESE
2000RinnovoSeniores FemminileN. ATL. VARESE
1999RinnovoSeniores FemminileN. ATL. VARESE
1998TrasferimentoSeniores FemminileN. ATL. VARESE